Location: Bruneau Dunes Observatory
(42.9024°N, 115.6902°W)
Time: 12:12:03
(UTC-07:00)

Daily predictions for brighter satellites

Satellite Brightness Start Highest point End
(mag) Time Altitude Azimuth Time Altitude Azimuth Time Altitude Azimuth
ALOS 3.5 18:40:50 10° ESE 18:44:20 21° ENE 18:47:51 10° NNE
SL-8 R/B 3.7 18:43:25 10° WNW 18:48:16 85° NNE 18:53:07 10° ESE
CZ-4 R/B 3.8 18:45:07 10° SSW 18:48:43 30° W 18:52:24 10° NW
Cosmos 1833 Rocket 3.5 18:44:30 10° SW 18:50:01 56° WNW 18:55:34 10° NNE
CENTAUR R/B 3.1 18:44:53 10° NW 18:52:44 79° NE 19:01:07 10° SE
Cosmos 1745 Rocket 4.2 18:48:30 10° SSE 18:54:37 52° E 19:00:42 10° NNE
ATLAS CENTAUR R/B 3.1 18:53:28 10° WSW 18:57:40 34° NW 19:01:39 10° NNE
Cosmos 1812 3.4 18:54:47 10° NNE 18:58:17 32° ENE 19:01:45 10° SE
NOSS 2-2 (E) 3.5 18:57:14 10° SSW 19:01:15 66° ESE 19:05:55 10° NE
BREEZE-M DEB (TANK) 2.8 18:59:32 10° NW 19:01:33 28° NNE 19:04:21 12° E
FENGYUN 3A 4.2 18:59:29 10° SE 19:04:21 35° ENE 19:09:15 10° N
Okean 3 4.1 19:02:57 10° NNW 19:07:13 61° W 19:11:26 10° S
Cosmos 44 Rocket 3.1 19:03:17 10° NNW 19:08:05 75° NE 19:12:45 10° SE
DELTA 2 R/B (1) 3.9 19:05:31 10° WSW 19:11:03 61° S 19:15:51 14° E
BREEZE-M DEB (TANK) 3.7 19:09:50 10° WNW 19:20:51 86° SSW 19:23:47 13° ESE
NOSS 2-2 (D) 3.5 19:16:56 10° SSW 19:20:58 87° ESE 19:25:40 10° NE
Tiangong 2 0.9 19:18:16 10° W 19:21:21 88° S 19:23:09 22° E
Cosmos 1461 3.5 19:19:04 10° NNW 19:22:43 33° NE 19:25:02 19° ESE
SJ-6B 2.8 19:20:32 10° SSE 19:24:35 76° ENE 19:28:35 10° N
Meteor 1-18 Rocket 4.1 19:20:11 10° N 19:25:46 77° E 19:31:21 10° SSE
Cosmos 2360 Rocket 3.1 19:21:06 10° N 19:25:54 27° NE 19:28:48 18° E
Cosmos 2292 Rocket 4.3 19:22:23 10° SSE 19:26:45 44° E 19:32:35 10° NNE
Cosmos 1980 Rocket 3.3 19:21:24 10° NW 19:26:52 49° WSW 19:32:17 10° S
SL-19 R/B 4.5 19:22:30 10° SE 19:27:54 52° ENE 19:33:38 10° N
Cosmos 1975 Rocket 3.7 19:24:13 10° NNW 19:28:29 59° W 19:32:42 10° S
Helios 1A 4.1 19:29:01 21° E 19:30:15 24° ENE 19:33:37 10° NNE
Cosmos 1992 Rocket 4.3 19:26:03 10° NNW 19:31:16 73° WSW 19:36:28 10° S
Cosmos 407 Rocket 3.6 19:28:16 10° S 19:33:18 51° ESE 19:38:27 10° NNE
ERBS 3.6 19:31:46 10° WNW 19:35:03 41° SW 19:38:19 10° SSE
SAR-Lupe-4 4.4 19:36:02 28° E 19:36:37 29° ENE 19:39:46 10° N
NOSS 2-2 (C) 3.9 19:34:09 10° SW 19:38:10 65° NW 19:42:53 10° NNE
Cosmos 44 3.0 19:36:26 10° NW 19:40:55 85° SW 19:45:13 10° SSE
FengYun 1-2 T 4.1 19:37:06 10° SSE 19:42:34 75° ENE 19:48:03 10° N
Cosmos 2333 Rocket 4.2 19:42:24 10° NNE 19:43:37 11° NE 19:43:50 11° NE
Resurs 01 Rocket 1.6 19:39:54 10° SSE 19:44:15 63° ENE 19:48:38 10° N
Cosmos 1536 Rocket 3.5 19:42:49 10° N 19:47:16 68° E 19:51:43 10° SSE
GEOS 3 Rocket 3.8 19:42:17 10° NNE 19:47:32 76° NW 19:52:47 10° SW
Nadezhda 1 Rocket 4.3 19:42:42 10° NNW 19:48:45 66° W 19:54:44 10° S
Okean 1 3.3 19:48:49 10° N 19:52:53 86° W 19:56:57 10° S
BREEZE-M DEB (TANK) 3.6 19:50:30 10° NW 19:53:24 48° NNE 19:55:42 30° E
FREGAT/IRIS 4.4 19:51:28 10° SSW 19:54:19 34° W 19:57:12 10° NNW
Cosmos 2181 Rocket 4.0 19:48:13 10° N 19:54:23 61° E 20:00:35 10° SSE
Cosmos 1190 Rocket 4.0 19:50:46 10° SSW 19:55:57 86° WNW 20:01:11 10° NNE
SL-16 R/B 2.3 19:50:16 10° NNW 19:55:57 78° WSW 20:01:37 10° SSE
Meteor 1-13 Rocket 4.2 19:50:30 10° N 19:55:59 59° ENE 20:01:29 10° SSE
Helios 1B rocket 4.0 20:04:10 21° SSE 20:04:10 21° SSE 20:05:46 10° S
DNEPR-1 R/B 3.5 19:58:43 10° NW 20:02:59 77° WSW 20:05:11 27° SSE
Cosmos 1633 2.6 19:59:50 10° S 20:02:59 55° SE 20:02:59 55° SE
Cosmos 1140 Rocket 3.7 20:01:54 10° S 20:06:35 42° ESE 20:06:35 42° ESE
Cosmos 1340 2.5 20:03:36 10° N 20:07:25 79° E 20:08:18 51° SSE
Spot 2 Rocket 3.5 20:02:42 10° SSE 20:07:45 81° WSW 20:12:50 10° NNW
CZ-2D R/B 3.0 20:07:47 52° SSE 20:08:36 76° ENE 20:12:25 10° N
Resurs 1-3 3.7 20:09:44 10° S 20:14:06 75° WSW 20:18:31 10° NNW
Cosmos 2322 Rocket 2.9 20:10:32 10° NW 20:15:58 52° WSW 20:21:23 10° S
Cosmos 2184 Rocket 4.2 20:11:24 10° SSE 20:17:21 45° E 20:23:17 10° NNE
Cosmos 1238 Rocket 4.0 20:15:25 10° N 20:16:53 24° NNW 20:16:53 24° NNW
Cosmos 2074 Rocket 4.1 20:14:02 10° SSE 20:19:58 49° E 20:25:58 10° NNE
ALOS 3.5 20:17:04 10° S 20:21:29 42° W 20:25:57 10° NNW
Cosmos 1709 Rocket 4.2 20:15:53 10° SSW 20:22:07 72° W 20:28:19 10° N
Cosmos 2322 3.6 20:17:54 10° NNW 20:23:37 64° ENE 20:24:35 55° ESE
Cosmos 1300 Rocket 3.5 20:19:15 10° S 20:23:39 86° WNW 20:28:06 10° N
H-2A R/B 3.5 20:20:56 15° S 20:23:45 50° W 20:27:24 10° NNW
Envisat 3.6 20:24:57 40° NE 20:24:57 40° NE 20:28:42 10° N
Cosmos 1954 Rocket 3.8 20:20:01 10° SSW 20:25:11 83° ESE 20:28:17 25° NNE
SL-08 ROCKET BODY 4.4 20:21:23 10° S 20:27:25 62° E 20:33:32 10° NNE
Meteor 1-11 Rocket 3.7 20:24:26 10° S 20:30:11 89° ESE 20:36:07 10° N
Spot 1 4.1 20:30:35 63° SW 20:31:01 69° WSW 20:35:05 10° NNW
Meteor 2-4 Rocket 3.5 20:25:27 10° N 20:31:05 73° ENE 20:32:00 60° SE
COSMOS 2428 3.4 20:27:49 10° NNW 20:32:15 38° NNE 20:32:15 38° NNE
Cosmos 2237 4.4 20:28:37 10° NNW 20:33:47 51° NE 20:33:47 51° NE
USA 229 DEB 4.2 20:33:47 10° NNW 20:40:29 42° NE 20:40:45 42° NE
USA 229 4.2 20:33:53 10° NNW 20:40:35 42° NE 20:40:50 42° NE
Cosmos 1818 3.8 20:39:03 10° SW 20:44:28 68° NW 20:46:01 46° N
Cosmos 2237 Rocket 4.1 20:46:17 10° N 20:48:11 17° NNE 20:48:11 17° NNE
USA 215 4.5 20:55:41 26° NNE 20:56:49 27° N 21:02:07 10° NW
DELTA 2 R/B (1) 4.1 20:51:46 10° W 20:56:38 52° SW 20:56:38 52° SW
Tiangong 2 4.5 20:54:49 10° W 20:55:08 12° W 20:55:08 12° W
Cosmos 2360 Rocket 2.9 21:04:42 10° NW 21:10:08 49° WSW 21:10:38 48° SW
Cosmos 2219 Rocket 3.8 21:09:57 10° NNW 21:12:24 25° N 21:12:24 25° N
Cosmos 2333 Rocket 4.0 21:23:40 10° NNW 21:25:51 23° N 21:25:51 23° N
